Simultaneous Nadir Overpasses (SNOs) Predictions

Prediction of SNOs between GOES-15 and NOAA-20 Satellite Orbit:

Table of predicted SNOs for the next 14.0 days since TLE Epoch: 8/6/2022
Index Date Time (GOES-15) GOES-15 Lat,Lon NOAA-20 Lat,Lon Distance(km) Time Diff (sec)
1 08/08/2022 10:01:27 0.38,-128.06 0.54,-128.68 71.81 80
2 08/09/2022 09:40:02 0.36,-128.07 -0.53,-124.16 445.29 80
3 08/10/2022 22:01:56 -0.38,-128.07 -0.69,-129.46 158.25 80
4 08/11/2022 21:45:51 -0.37,-128.08 0.33,-124.92 359.60 80
5 08/13/2022 10:07:37 0.39,-128.12 0.86,-130.19 235.91 80
6 08/14/2022 09:46:12 0.38,-128.12 -0.16,-125.65 281.28 80
7 08/15/2022 22:08:06 -0.39,-128.11 -1.05,-130.95 323.42 80
8 08/16/2022 21:52:01 -0.39,-128.13 -0.03,-126.41 194.49 80
9 08/18/2022 10:13:48 0.40,-128.17 1.16,-131.69 400.41 80
10 08/19/2022 09:52:22 0.39,-128.18 0.14,-127.16 116.40 80
